QPF
0.00 0.00 0.00 0.00 0.00 0.00 0.00 0.00 0.00 0.00 0.00 0.00 0.00 0.00 0.00 0.00 0.00 0.00 0.00 0.00 0.00 0.00 0.00 0.00 0.00 0.00 0.00 0.00 0.00 0.00 0.00 0.00 0.00 0.00 0.00 0.00 0.00 0.00 0.00 0.00 0.00 0.00 0.00
0.00 0.00 0.00 0.00 0.00 0.00 0.00 0.00 0.00 0.00 0.00 0.00 0.00 0.00 0.00 0.00 0.00 0.00 0.00 0.00 0.00 0.00 0.00 0.00 0.00 0.00 0.00 0.00 0.00 0.02 0.02 0.01 0.00 0.00 0.00 0.00 0.00 0.00 0.00 0.00 0.00 0.00 0.00
0.00 0.00 0.00 0.00 0.00 0.00 0.00 0.00 0.00 0.00 0.00 0.00 0.00 0.00 0.00 0.00 0.00 0.00 0.00 0.00 0.00 0.00 0.00 0.00 0.00 0.00 0.00 0.00 0.00 0.00 0.02 0.01 0.01 0.00 0.00 0.00 0.00 0.00 0.00 0.00 0.00 0.00 0.00
0.00 0.00 0.00 0.00 0.00 0.00 0.00 0.00 0.00 0.00 0.00 0.00 0.00 0.00 0.00 0.00 0.00 0.00 0.00 0.00 0.00 0.00 0.00 0.00 0.00 0.00 0.00 0.00 0.00 0.00 0.01 0.00 0.00 0.00 0.00 0.00 0.00 0.00 0.00 0.00 0.00 0.00 0.00
0.00 0.00 0.00 0.00 0.00 0.00 0.00 0.00 0.00 0.00 0.00 0.00 0.00 0.00 0.00 0.00 0.00 0.00 0.00 0.00 0.00 0.00 0.00 0.00 0.00 0.00 0.00 0.00 0.00 0.00 0.00 0.00 0.00 0.00 0.00 0.00 0.00 0.00 0.00 0.00 0.00 0.00 0.01
0.00 0.00 0.00 0.00 0.00 0.00 0.00 0.00 0.00 0.00 0.00 0.00 0.00 0.00 0.00 0.00 0.00 0.00 0.00 0.00 0.00 0.00 0.00 0.00 0.00 0.00 0.00 0.00 0.00 0.00 0.00 0.00 0.00 0.00 0.00 0.00 0.00 0.00 0.00 0.00 0.00 0.00 0.00
0.03 0.00 0.00 0.00 0.00 0.00 0.00 0.00 0.00 0.00 0.00 0.00 0.00 0.00 0.00 0.00 0.00 0.00 0.00 0.00 0.00 0.00 0.00 0.00 0.00 0.00 0.00 0.00 0.00 0.00 0.00 0.00 0.00 0.00 0.00 0.00 0.00 0.00 0.00 0.00 0.00 0.00 0.00
0.12 0.07 0.00 0.00 0.00 0.00 0.00 0.00 0.00 0.00 0.00 0.00 0.00 0.00 0.00 0.00 0.00 0.00 0.00 0.00 0.00 0.00 0.00 0.00 0.00 0.00 0.00 0.00 0.00 0.00 0.00 0.00 0.00 0.00 0.00 0.00 0.00 0.00 0.00 0.00 0.00 0.00 0.00
0.15 0.17 0.12 0.02 0.01 0.00 0.00 0.00 0.00 0.01 0.01 0.00 0.00 0.01 0.01 0.00 0.00 0.00 0.00 0.00 0.00 0.00 0.00 0.00 0.00 0.00 0.00 0.00 0.00 0.00 0.00 0.00 0.00 0.00 0.00 0.00 0.00 0.00 0.00 0.00 0.00 0.00 0.00
0.10 0.11 0.20 0.18 0.08 0.01 0.00 0.02 0.09 0.12 0.10 0.09 0.03 0.03 0.05 0.03 0.01 0.01 0.00 0.00 0.00 0.00 0.00 0.00 0.00 0.00 0.00 0.00 0.00 0.00 0.00 0.00 0.00 0.00 0.01 0.01 0.00 0.00 0.00 0.00 0.00 0.00 0.00
0.14 0.07 0.05 0.10 0.11 0.09 0.05 0.08 0.12 0.12 0.10 0.14 0.10 0.05 0.04 0.06 0.03 0.00 0.00 0.00 0.00 0.00 0.00 0.00 0.00 0.00 0.00 0.00 0.00 0.00 0.00 0.00 0.00 0.00 0.01 0.01 0.00 0.00 0.00 0.00 0.00 0.00 0.00
0.05 0.03 0.04 0.03 0.04 0.04 0.07 0.05 0.00 0.02 0.02 0.01 0.01 0.01 0.00 0.01 0.01 0.00 0.00 0.00 0.00 0.00 0.00 0.00 0.00 0.00 0.00 0.00 0.00 0.00 0.00 0.00 0.00 0.00 0.00 0.01 0.00 0.00 0.00 0.00 0.00 0.00 0.00
0.02 0.02 0.00 0.00 0.00 0.01 0.05 0.05 0.01 0.00 0.00 0.00 0.00 0.00 0.01 0.01 0.01 0.01 0.00 0.00 0.00 0.00 0.00 0.00 0.00 0.00 0.00 0.00 0.00 0.00 0.00 0.00 0.00 0.00 0.01 0.01 0.00 0.00 0.00 0.00 0.00 0.00 0.00
0.00 0.00 0.00 0.00 0.00 0.01 0.02 0.02 0.01 0.01 0.01 0.01 0.00 0.01 0.02 0.01 0.00 0.00 0.00 0.00 0.00 0.00 0.00 0.00 0.00 0.00 0.00 0.00 0.00 0.00 0.00 0.00 0.00 0.00 0.01 0.00 0.00 0.00 0.00 0.00 0.00 0.00 0.00
0.01 0.01 0.00 0.00 0.00 0.02 0.04 0.01 0.00 0.00 0.02 0.03 0.01 0.01 0.02 0.01 0.00 0.00 0.00 0.00 0.00 0.00 0.00 0.00 0.00 0.00 0.00 0.00 0.00 0.00 0.00 0.00 0.00 0.00 0.00 0.00 0.00 0.00 0.00 0.00 0.00 0.00 0.00
0.11 0.18 0.19 0.08 0.01 0.01 0.04 0.03 0.02 0.02 0.02 0.05 0.04 0.02 0.02 0.01 0.00 0.00 0.00 0.00 0.00 0.00 0.00 0.00 0.00 0.00 0.00 0.00 0.00 0.00 0.00 0.00 0.00 0.00 0.00 0.00 0.00 0.00 0.00 0.00 0.00 0.00 0.00
0.11 0.15 0.24 0.23 0.13 0.05 0.07 0.08 0.07 0.07 0.07 0.05 0.05 0.05 0.06 0.03 0.00 0.00 0.00 0.00 0.00 0.00 0.00 0.00 0.00 0.00 0.00 0.00 0.00 0.00 0.00 0.00 0.00 0.00 0.00 0.00 0.00 0.00 0.00 0.00 0.00 0.00 0.00
0.00 0.01 0.01 0.02 0.01 0.01 0.04 0.03 0.01 0.02 0.03 0.05 0.05 0.03 0.03 0.03 0.01 0.01 0.00 0.00 0.00 0.00 0.00 0.00 0.00 0.00 0.00 0.00 0.00 0.00 0.00 0.00 0.00 0.00 0.00 0.00 0.00 0.00 0.00 0.00 0.00 0.00 0.00
0.00 0.00 0.00 0.00 0.00 0.00 0.00 0.00 0.01 0.01 0.01 0.02 0.03 0.02 0.02 0.02 0.01 0.00 0.00 0.00 0.00 0.00 0.00 0.00 0.00 0.00 0.00 0.00 0.00 0.00 0.00 0.00 0.00 0.00 0.00 0.00 0.00 0.00 0.00 0.00 0.00 0.00 0.00
0.00 0.00 0.00 0.00 0.00 0.00 0.00 0.00 0.00 0.01 0.02 0.02 0.03 0.05 0.03 0.02 0.01 0.00 0.00 0.00 0.00 0.00 0.00 0.00 0.00 0.00 0.00 0.00 0.00 0.00 0.00 0.00 0.00 0.00 0.00 0.00 0.00 0.00 0.00 0.00 0.00 0.00 0.00
0.00 0.00 0.00 0.00 0.00 0.00 0.00 0.00 0.00 0.00 0.01 0.01 0.03 0.03 0.02 0.02 0.01 0.01 0.00 0.00 0.00 0.00 0.00 0.00 0.00 0.00 0.00 0.00 0.00 0.00 0.00 0.00 0.00 0.00 0.00 0.00 0.00 0.00 0.00 0.00 0.00 0.00 0.00
0.00 0.00 0.00 0.00 0.00 0.00 0.00 0.00 0.00 0.00 0.00 0.01 0.02 0.02 0.02 0.02 0.01 0.01 0.01 0.01 0.00 0.00 0.00 0.00 0.00 0.00 0.00 0.00 0.00 0.00 0.00 0.00 0.00 0.00 0.00 0.00 0.00 0.00 0.00 0.00 0.00 0.00 0.00
0.00 0.00 0.00 0.00 0.00 0.00 0.00 0.00 0.00 0.00 0.00 0.00 0.00 0.00 0.00 0.01 0.01 0.00 0.00 0.00 0.00 0.00 0.00 0.00 0.00 0.00 0.00 0.00 0.00 0.00 0.00 0.00 0.00 0.00 0.00 0.00 0.00 0.00 0.00 0.00 0.00 0.00 0.00
0.00 0.00 0.00 0.00 0.00 0.00 0.00 0.00 0.00 0.00 0.00 0.00 0.00 0.00 0.00 0.00 0.00 0.00 0.00 0.00 0.00 0.00 0.00 0.00 0.00 0.00 0.00 0.00 0.00 0.00 0.00 0.00 0.00 0.00 0.00 0.00 0.00 0.00 0.00 0.00 0.00 0.00 0.00
0.00 0.00 0.00 0.00 0.00 0.00 0.00 0.00 0.00 0.00 0.00 0.00 0.00 0.00 0.00 0.00 0.00 0.00 0.00 0.00 0.00 0.00 0.00 0.00 0.00 0.00 0.00 0.00 0.00 0.00 0.00 0.00 0.00 0.00 0.00 0.00 0.00 0.00 0.00 0.00 0.00 0.00 0.00
0.00 0.00 0.00 0.00 0.00 0.00 0.00 0.00 0.00 0.00 0.00 0.00 0.00 0.00 0.00 0.00 0.00 0.00 0.00 0.00 0.00 0.00 0.00 0.00 0.00 0.00 0.00 0.00 0.00 0.00 0.00 0.00 0.00 0.00 0.00 0.00 0.00 0.00 0.00 0.00 0.00 0.00 0.00
MSLP
1015.84 1016.04 1016.30 1016.71 1016.94 1017.46 1017.79 1018.12 1018.30 1018.28 1018.38 1018.52 1018.65 1018.67 1018.67 1018.62 1018.52 1018.84 1019.07 1019.09 1019.25 1019.36 1019.48 1019.62 1019.70 1019.78 1019.88 1020.00 1020.14 1020.30 1020.42 1020.51 1020.51 1020.54 1020.51 1020.40 1020.47 1020.40 1020.47 1020.54 1020.49 1020.60 1020.52
1015.52 1015.69 1016.18 1016.55 1016.86 1017.08 1017.38 1017.55 1017.81 1018.05 1018.09 1018.10 1017.96 1018.10 1018.21 1018.42 1018.34 1018.60 1018.77 1018.91 1018.97 1019.11 1019.14 1019.29 1019.39 1019.43 1019.48 1019.55 1019.60 1019.71 1019.90 1020.01 1020.12 1020.18 1020.25 1020.31 1020.07 1020.17 1020.29 1020.30 1020.28 1020.26 1020.23
1015.18 1015.45 1015.91 1016.34 1016.38 1016.50 1016.90 1017.08 1017.30 1017.53 1017.78 1017.65 1018.00 1017.95 1017.83 1017.94 1018.28 1018.31 1018.50 1018.71 1018.76 1018.78 1018.89 1019.03 1019.15 1019.23 1019.27 1019.25 1019.16 1019.23 1019.37 1019.63 1019.73 1019.76 1019.93 1019.96 1020.00 1020.08 1020.32 1020.30 1020.27 1020.19 1020.25
1014.65 1015.10 1015.48 1015.75 1015.81 1016.09 1016.45 1016.69 1016.92 1017.26 1017.53 1017.65 1017.64 1017.72 1017.86 1017.87 1017.92 1017.97 1018.01 1018.19 1018.40 1018.38 1018.63 1018.76 1018.88 1018.96 1018.96 1019.00 1018.93 1019.00 1018.99 1019.14 1019.42 1019.60 1019.76 1019.79 1020.06 1019.93 1019.93 1020.01 1020.03 1020.06 1020.09
1014.19 1014.69 1015.04 1015.19 1015.32 1015.64 1015.98 1016.31 1016.69 1016.97 1017.33 1017.42 1017.51 1017.54 1017.54 1017.77 1017.63 1017.68 1017.80 1017.86 1018.00 1018.16 1018.36 1018.51 1018.64 1018.76 1018.78 1018.96 1018.88 1018.84 1018.84 1018.92 1019.09 1019.35 1019.64 1019.71 1019.84 1019.98 1019.98 1020.07 1019.78 1019.69 1019.72
1013.81 1014.18 1014.47 1014.66 1014.89 1015.44 1015.75 1016.02 1016.30 1016.55 1016.86 1017.12 1017.24 1017.42 1017.43 1017.52 1017.42 1017.58 1017.51 1017.41 1017.79 1017.96 1018.22 1018.38 1018.56 1018.73 1018.70 1018.80 1018.91 1018.82 1018.75 1018.60 1018.77 1019.11 1019.55 1019.71 1019.94 1020.03 1019.99 1019.98 1020.02 1019.88 1019.84
1013.33 1013.68 1014.00 1014.35 1014.51 1015.06 1015.30 1015.51 1015.87 1016.30 1016.66 1016.80 1017.28 1017.45 1017.29 1017.29 1017.41 1017.29 1017.23 1017.39 1017.76 1017.87 1018.07 1018.24 1018.42 1018.65 1018.80 1018.88 1018.98 1018.79 1018.56 1018.47 1018.87 1019.24 1019.55 1019.73 1019.85 1019.93 1019.92 1019.89 1020.01 1019.93 1019.90
1012.69 1013.04 1013.60 1013.90 1014.19 1014.52 1014.80 1015.00 1015.39 1015.90 1016.20 1016.40 1016.94 1017.57 1017.60 1017.55 1017.22 1017.07 1017.11 1017.59 1017.62 1017.83 1017.96 1018.19 1018.46 1018.69 1018.93 1019.20 1019.16 1019.12 1018.89 1018.53 1018.80 1019.28 1019.73 1019.82 1019.92 1020.09 1020.08 1019.97 1019.85 1019.82 1019.75
1011.71 1012.29 1012.91 1013.41 1013.84 1014.05 1014.39 1014.62 1015.00 1015.55 1015.83 1015.98 1016.25 1017.03 1017.66 1017.77 1017.59 1017.26 1017.17 1017.43 1017.43 1017.72 1018.07 1018.33 1018.55 1018.61 1019.00 1019.24 1019.25 1019.35 1019.38 1019.08 1018.92 1019.13 1019.41 1019.59 1019.74 1020.01 1019.90 1020.04 1019.98 1019.67 1019.47
1011.76 1012.06 1012.47 1012.88 1013.23 1013.59 1014.03 1014.20 1014.67 1015.01 1015.32 1015.86 1016.47 1016.71 1017.25 1017.80 1018.19 1018.13 1017.68 1017.92 1017.40 1017.61 1017.99 1018.32 1018.51 1018.64 1018.80 1019.13 1019.47 1019.49 1019.50 1019.40 1019.18 1019.05 1019.34 1019.65 1019.69 1020.06 1019.97 1019.98 1019.88 1019.73 1019.58
1011.44 1011.34 1012.08 1012.72 1012.68 1013.27 1013.35 1013.78 1013.67 1015.00 1015.13 1015.63 1016.10 1016.48 1016.78 1017.38 1017.95 1018.86 1018.43 1017.81 1017.67 1017.95 1018.20 1018.39 1018.45 1018.68 1019.13 1019.23 1019.48 1019.63 1019.62 1019.45 1019.31 1019.08 1019.03 1019.53 1019.69 1020.00 1020.02 1020.06 1019.86 1019.54 1019.39
1011.88 1012.05 1012.53 1012.37 1012.72 1013.05 1013.00 1013.64 1013.45 1014.09 1013.87 1014.25 1015.33 1015.52 1015.92 1016.31 1017.19 1017.60 1018.43 1018.33 1017.98 1018.15 1018.27 1018.61 1018.60 1018.86 1019.27 1019.46 1019.49 1019.76 1019.69 1019.68 1019.56 1019.37 1019.31 1019.70 1020.00 1020.32 1020.37 1020.03 1019.93 1019.60 1019.36
1012.00 1012.05 1012.35 1012.41 1012.70 1012.76 1013.43 1013.39 1013.38 1013.89 1014.28 1014.51 1014.46 1014.78 1014.86 1015.08 1015.64 1017.07 1016.68 1017.60 1018.16 1018.15 1018.28 1018.30 1018.54 1018.89 1019.22 1019.55 1019.70 1019.83 1020.02 1020.06 1020.04 1019.81 1019.62 1019.95 1020.35 1020.55 1020.56 1020.20 1020.11 1019.79 1019.67
1012.02 1011.88 1012.13 1012.60 1012.47 1012.40 1013.13 1013.25 1013.58 1013.64 1013.85 1014.49 1014.60 1014.85 1014.87 1014.66 1014.61 1016.47 1016.38 1017.17 1018.00 1018.16 1018.25 1018.60 1018.83 1018.94 1019.12 1019.54 1019.83 1020.22 1020.35 1020.30 1020.21 1020.09 1020.07 1020.31 1020.60 1020.67 1020.73 1020.37 1020.26 1019.99 1019.84
1011.53 1011.73 1011.79 1012.13 1012.11 1012.12 1012.69 1012.94 1013.26 1013.13 1013.39 1013.79 1014.18 1014.43 1014.49 1013.58 1014.53 1016.05 1016.05 1016.67 1016.87 1017.90 1018.23 1018.68 1018.99 1019.29 1019.42 1019.64 1019.96 1020.32 1020.63 1020.58 1020.48 1020.54 1020.62 1020.73 1020.88 1020.96 1020.88 1020.64 1020.61 1020.54 1020.45
1011.04 1011.20 1011.59 1011.63 1011.49 1011.73 1012.26 1012.24 1012.68 1012.56 1013.11 1013.05 1013.56 1013.90 1013.96 1013.57 1014.59 1015.27 1015.58 1016.21 1016.52 1016.98 1017.85 1018.30 1018.82 1019.33 1019.49 1019.69 1019.91 1020.04 1020.43 1020.65 1020.76 1020.69 1020.83 1021.08 1021.14 1020.99 1020.80 1020.93 1020.88 1020.77 1020.53
1011.28 1011.30 1011.05 1010.73 1010.83 1011.07 1011.44 1011.64 1011.77 1012.02 1012.30 1012.61 1013.11 1013.37 1013.64 1013.90 1014.36 1014.98 1015.34 1015.81 1016.37 1016.64 1017.56 1018.53 1018.83 1019.20 1019.71 1019.95 1020.36 1020.45 1020.65 1020.67 1020.91 1021.04 1020.78 1020.92 1020.81 1020.76 1020.90 1021.02 1021.01 1020.76 1020.33
1011.72 1011.57 1011.38 1011.12 1010.96 1010.73 1010.97 1010.84 1011.10 1011.33 1011.59 1012.13 1012.62 1012.96 1013.19 1013.76 1013.96 1014.60 1015.01 1015.72 1016.23 1016.59 1017.21 1018.00 1018.73 1019.37 1019.62 1019.88 1020.15 1020.52 1020.65 1020.68 1020.73 1020.97 1020.88 1020.79 1020.71 1020.52 1020.78 1020.95 1021.06 1021.05 1020.70
1011.67 1011.39 1011.24 1010.95 1010.89 1010.71 1010.79 1010.63 1010.45 1010.83 1011.14 1011.39 1011.75 1012.24 1012.45 1013.13 1013.68 1014.19 1014.81 1015.32 1015.79 1016.32 1017.01 1017.60 1018.42 1018.88 1019.54 1019.84 1020.30 1020.49 1020.38 1020.84 1020.89 1020.89 1020.82 1020.69 1020.61 1020.56 1020.68 1020.86 1020.91 1021.10 1020.99
1011.77 1011.78 1011.17 1010.92 1010.94 1011.02 1010.74 1010.59 1010.61 1010.48 1011.01 1011.26 1011.48 1011.79 1012.13 1012.47 1012.88 1013.56 1014.22 1015.12 1015.73 1016.15 1016.94 1017.07 1017.76 1018.57 1019.07 1019.53 1019.95 1020.32 1020.59 1020.64 1020.99 1020.98 1020.82 1020.87 1020.52 1020.55 1020.50 1020.84 1020.89 1021.40 1020.86
1012.12 1011.86 1011.57 1011.16 1010.95 1010.66 1010.85 1010.79 1010.63 1010.85 1010.88 1011.31 1011.55 1011.68 1011.81 1012.18 1012.26 1012.89 1013.63 1014.82 1015.39 1015.78 1016.84 1017.21 1017.43 1017.92 1018.65 1019.15 1019.41 1019.80 1020.30 1020.43 1020.56 1020.85 1020.91 1020.77 1020.96 1020.87 1020.88 1020.70 1021.06 1021.30 1020.97
1012.46 1011.82 1011.44 1011.19 1011.04 1010.97 1010.67 1010.54 1010.62 1010.70 1010.81 1010.86 1011.19 1011.65 1011.76 1012.34 1012.23 1012.66 1013.19 1013.89 1014.77 1015.19 1015.81 1016.63 1017.34 1017.49 1017.81 1018.39 1018.82 1019.17 1020.04 1020.52 1020.65 1020.14 1020.69 1020.73 1020.63 1020.87 1021.16 1021.18 1020.75 1020.62 1021.02
1012.47 1012.18 1011.68 1011.23 1010.98 1010.85 1010.54 1010.77 1010.77 1010.74 1010.69 1010.66 1010.98 1011.27 1011.70 1012.08 1012.31 1012.80 1013.26 1013.91 1014.03 1014.71 1014.80 1015.58 1016.30 1016.73 1017.31 1017.55 1018.23 1018.95 1019.35 1019.58 1020.04 1019.99 1020.04 1020.24 1020.52 1020.72 1021.58 1021.28 1021.20 1020.93 1020.84
1012.87 1012.32 1011.50 1011.10 1010.85 1010.64 1010.40 1010.58 1010.48 1010.79 1010.69 1010.81 1010.60 1011.00 1011.55 1011.90 1012.43 1012.68 1013.54 1014.21 1014.34 1014.66 1014.92 1015.03 1015.66 1016.19 1016.55 1016.76 1017.52 1017.81 1018.44 1019.17 1019.74 1020.17 1020.09 1020.90 1021.31 1021.33 1020.89 1021.47 1021.44 1020.81 1020.48
1013.23 1012.17 1011.71 1011.17 1010.65 1010.49 1010.41 1010.28 1010.34 1010.57 1010.88 1011.07 1010.53 1010.70 1011.26 1011.60 1012.01 1012.42 1013.01 1013.83 1014.59 1014.78 1014.76 1015.31 1015.34 1015.73 1016.11 1016.32 1016.87 1017.88 1018.49 1019.37 1019.54 1019.69 1019.79 1019.68 1020.84 1020.93 1021.47 1021.56 1021.38 1021.03 1020.72
1012.44 1011.75 1011.66 1011.49 1011.07 1010.52 1010.41 1010.16 1010.18 1010.48 1010.36 1010.73 1010.49 1010.82 1011.03 1011.38 1011.91 1012.23 1012.94 1013.45 1014.48 1014.78 1015.30 1015.18 1015.80 1015.86 1016.09 1016.39 1016.41 1017.06 1017.79 1018.82 1019.22 1019.57 1019.66 1020.33 1020.68 1021.08 1021.26 1021.32 1021.65 1021.39 1021.23
Thickness
5686 5687 5692 5690 5691 5690 5690 5689 5689 5691 5692 5692 5691 5692 5692 5694 5696 5695 5694 5693 5691 5690 5687 5685 5684 5682 5681 5679 5676 5674 5671 5668 5667 5665 5664 5663 5660 5658 5653 5649 5648 5643 5640
5679 5683 5682 5683 5684 5685 5686 5687 5686 5685 5688 5688 5690 5690 5690 5690 5692 5691 5691 5689 5689 5687 5686 5683 5681 5680 5678 5676 5675 5673 5670 5669 5667 5664 5661 5658 5659 5654 5650 5647 5646 5643 5639
5671 5674 5675 5677 5680 5682 5681 5682 5682 5682 5682 5685 5682 5684 5687 5686 5685 5687 5686 5684 5685 5685 5683 5680 5678 5676 5674 5673 5672 5670 5668 5665 5664 5662 5658 5656 5654 5650 5645 5643 5640 5638 5632
5667 5667 5670 5674 5676 5676 5677 5679 5680 5677 5676 5677 5679 5678 5679 5680 5680 5681 5683 5681 5680 5681 5680 5677 5674 5672 5670 5668 5668 5666 5664 5662 5657 5655 5652 5649 5644 5645 5643 5639 5635 5631 5627
5661 5662 5666 5670 5671 5671 5674 5675 5673 5672 5670 5671 5672 5673 5675 5675 5675 5674 5676 5676 5676 5675 5675 5673 5671 5668 5666 5663 5662 5662 5659 5657 5654 5649 5645 5643 5639 5636 5634 5629 5630 5627 5624
5656 5658 5662 5663 5666 5665 5666 5669 5668 5668 5666 5665 5666 5664 5667 5669 5669 5670 5672 5672 5670 5669 5668 5666 5665 5662 5661 5659 5656 5655 5653 5652 5650 5645 5639 5636 5632 5627 5625 5621 5618 5617 5614
5650 5653 5656 5658 5660 5661 5662 5663 5662 5660 5658 5659 5656 5656 5659 5662 5663 5665 5665 5664 5662 5662 5660 5659 5659 5656 5653 5650 5647 5648 5647 5646 5641 5636 5631 5628 5624 5620 5619 5617 5611 5609 5606
5649 5650 5651 5652 5654 5655 5655 5656 5656 5653 5653 5655 5651 5643 5643 5648 5658 5658 5659 5655 5656 5653 5652 5651 5649 5647 5644 5640 5639 5637 5637 5639 5635 5628 5621 5620 5615 5611 5609 5608 5606 5602 5598
5655 5650 5648 5646 5646 5648 5646 5648 5648 5648 5647 5648 5645 5639 5632 5634 5639 5646 5648 5647 5648 5644 5643 5640 5638 5637 5633 5631 5630 5628 5625 5627 5625 5621 5617 5614 5609 5604 5602 5597 5594 5592 5589
5646 5647 5648 5645 5644 5641 5640 5641 5638 5641 5642 5639 5636 5633 5632 5631 5629 5627 5635 5634 5639 5637 5635 5633 5631 5628 5626 5622 5618 5617 5617 5616 5616 5614 5609 5605 5601 5594 5592 5588 5584 5580 5577
5640 5646 5643 5641 5642 5638 5639 5638 5639 5632 5636 5635 5632 5629 5628 5624 5621 5614 5620 5626 5629 5626 5625 5624 5623 5621 5616 5615 5612 5609 5607 5608 5606 5606 5604 5598 5592 5587 5582 5575 5572 5572 5569
5628 5632 5630 5636 5633 5630 5636 5632 5634 5632 5637 5638 5630 5631 5628 5627 5623 5618 5609 5612 5614 5615 5614 5612 5612 5610 5607 5605 5604 5601 5600 5598 5596 5596 5593 5586 5580 5574 5569 5568 5564 5564 5562
5621 5624 5624 5626 5623 5627 5624 5625 5628 5626 5624 5625 5628 5627 5628 5628 5623 5614 5616 5607 5603 5605 5605 5606 5605 5602 5598 5597 5596 5594 5589 5586 5583 5583 5581 5576 5570 5564 5559 5559 5554 5553 5549
5611 5616 5616 5614 5619 5621 5616 5617 5617 5618 5617 5615 5615 5613 5616 5619 5621 5607 5611 5602 5595 5595 5597 5595 5593 5592 5592 5589 5585 5581 5578 5577 5575 5574 5571 5566 5560 5557 5551 5548 5544 5542 5539
5607 5608 5611 5609 5611 5614 5611 5610 5609 5612 5612 5608 5605 5605 5606 5616 5610 5600 5602 5597 5597 5588 5588 5586 5584 5582 5581 5580 5574 5571 5568 5567 5566 5563 5559 5554 5548 5543 5538 5537 5533 5529 5528
5604 5604 5604 5605 5609 5607 5603 5605 5603 5605 5603 5603 5600 5597 5598 5605 5598 5594 5594 5588 5588 5586 5582 5578 5576 5573 5572 5570 5566 5565 5561 5558 5554 5552 5548 5540 5536 5533 5531 5525 5522 5518 5517
5595 5598 5601 5605 5605 5604 5602 5600 5600 5601 5601 5600 5595 5593 5593 5591 5588 5585 5583 5581 5579 5579 5575 5568 5568 5565 5561 5559 5555 5553 5551 5549 5544 5539 5539 5534 5530 5526 5521 5516 5512 5510 5511
5583 5587 5589 5590 5594 5597 5596 5597 5596 5596 5596 5593 5591 5589 5588 5584 5584 5579 5577 5573 5573 5572 5569 5564 5559 5553 5553 5550 5547 5544 5541 5540 5537 5532 5528 5525 5521 5519 5513 5507 5502 5499 5499
5577 5581 5583 5585 5586 5589 5588 5591 5595 5591 5590 5590 5588 5586 5585 5580 5577 5574 5569 5568 5567 5564 5560 5555 5550 5547 5542 5540 5536 5534 5534 5527 5525 5522 5518 5515 5512 5509 5504 5499 5495 5489 5486
5570 5569 5575 5577 5576 5575 5580 5583 5584 5587 5581 5579 5579 5577 5575 5576 5572 5569 5564 5559 5556 5553 5549 5550 5546 5539 5535 5533 5529 5525 5522 5519 5513 5510 5508 5504 5503 5500 5497 5490 5486 5477 5479
5555 5557 5560 5563 5565 5567 5564 5567 5569 5569 5570 5566 5566 5565 5565 5564 5565 5562 5557 5549 5546 5545 5537 5534 5536 5535 5529 5524 5523 5519 5513 5510 5506 5500 5499 5496 5491 5488 5484 5484 5478 5470 5470
5539 5545 5547 5548 5550 5551 5553 5555 5555 5555 5555 5557 5556 5551 5551 5548 5550 5551 5548 5543 5539 5536 5532 5527 5524 5526 5523 5519 5515 5511 5501 5497 5497 5497 5490 5486 5484 5478 5473 5470 5471 5467 5461
5522 5523 5527 5531 5532 5534 5538 5538 5539 5541 5543 5544 5541 5541 5537 5537 5536 5534 5533 5530 5533 5529 5530 5525 5522 5519 5515 5512 5507 5498 5494 5493 5490 5488 5485 5482 5474 5470 5458 5458 5454 5456 5455
5497 5503 5508 5512 5515 5515 5518 5520 5523 5522 5526 5526 5527 5526 5523 5522 5519 5519 5515 5512 5515 5515 5516 5516 5512 5509 5506 5505 5498 5495 5490 5485 5479 5474 5473 5465 5458 5454 5455 5449 5444 5448 5450
5470 5478 5483 5487 5493 5495 5496 5499 5502 5503 5503 5503 5510 5511 5510 5508 5509 5508 5504 5500 5497 5499 5502 5499 5499 5498 5495 5494 5490 5482 5477 5473 5470 5468 5465 5466 5453 5450 5442 5440 5440 5438 5439
5450 5455 5456 5457 5461 5469 5472 5477 5479 5481 5486 5484 5488 5488 5490 5490 5490 5491 5487 5486 5482 5482 5482 5484 5481 5481 5481 5480 5480 5478 5472 5464 5461 5457 5455 5447 5444 5438 5433 5433 5430 5430 5430